To NAV CANADA Home Page Login to a new session Search on AWWS site Feedback and Comments Disclaimer Vers la page française équivalente Tips FAQ What's new on the site To the Forecasts and Observations / NOTAM section To "File a Flight Plan" website Publications and other links Update of the User's profile FIC Telephone Numbers My Weather Data Folder Route Weather Data Regional Weather Data Local Weather Data To the Forecasts and Observations / NOTAM section
Request Generated 02/06/2016 at 08:48:54 UTC . Weather information available at that time is displayed.

METAR/TAF

FLIN FLON/MB    

LWIS CYFO 060800Z AUTO 12008KT 080V150 M14/M16 A2980=
LWIS CYFO 060700Z AUTO 12007KT 080V150 M14/M17 A2984=
LWIS CYFO 060600Z AUTO 11007KT M14/M17 A2987=

CYFO - No TAF is issued for this station

Your time UTC time
Weather data provided by Environment Canada and NAV CANADA